QLK2223 YSSY-YSCB

Flight info

Callsign QLK2223
Flight time 0h 36m
Altitude 16000
Route SY3/34L WOL H65 CB
Aircraft DH8D/M-SDE2E3FGRY/H

Departure

Time 2026-04-25 09:01
Airport Sydney Kingsford Smith International Airport (YSSY)

Arrival

Time 2026-04-25 09:37
Airport Canberra Airport (YSCB)
Time Latitude Longitude Altitude Speed Heading
2026-04-25 08:31 -33.93128 151.18225 31 ft 0 kts 99°
2026-04-25 08:42 -33.93128 151.18227 31 ft 0 kts 99°
2026-04-25 08:43 -33.93125 151.18211 31 ft 2 kts 115°
2026-04-25 08:43 -33.93117 151.18196 30 ft 2 kts 133°
2026-04-25 08:43 -33.93105 151.18185 30 ft 2 kts 150°
2026-04-25 08:44 -33.93092 151.18178 30 ft 2 kts 167°
2026-04-25 08:44 -33.93077 151.18176 30 ft 2 kts 185°
2026-04-25 08:44 -33.93062 151.18179 30 ft 2 kts 191°
2026-04-25 08:44 -33.93047 151.18182 30 ft 2 kts 191°
2026-04-25 08:45 -33.93034 151.18185 30 ft 1 kts 191°
2026-04-25 08:45 -33.93033 151.18185 30 ft 0 kts 191°
2026-04-25 08:49 -33.93048 151.18182 30 ft 5 kts 189°
2026-04-25 08:49 -33.93096 151.18140 29 ft 11 kts 242°
2026-04-25 08:49 -33.93095 151.18059 28 ft 8 kts 284°
2026-04-25 08:50 -33.93084 151.18002 26 ft 5 kts 281°
2026-04-25 08:50 -33.93080 151.17963 26 ft 5 kts 275°
2026-04-25 08:50 -33.93076 151.17905 25 ft 10 kts 275°
2026-04-25 08:50 -33.93062 151.17809 23 ft 10 kts 279°
2026-04-25 08:51 -33.93042 151.17726 23 ft 10 kts 296°
2026-04-25 08:51 -33.93018 151.17658 23 ft 7 kts 278°
2026-04-25 08:51 -33.93014 151.17609 23 ft 8 kts 272°
2026-04-25 08:51 -33.93056 151.17534 22 ft 13 kts 208°
2026-04-25 08:52 -33.93167 151.17537 20 ft 16 kts 167°
2026-04-25 08:52 -33.93286 151.17567 18 ft 19 kts 167°
2026-04-25 08:52 -33.93371 151.17589 15 ft 12 kts 170°
2026-04-25 08:52 -33.93453 151.17586 12 ft 11 kts 187°
2026-04-25 08:53 -33.93553 151.17603 10 ft 15 kts 168°
2026-04-25 08:53 -33.93648 151.17641 10 ft 16 kts 150°
2026-04-25 08:53 -33.93758 151.17691 10 ft 18 kts 169°
2026-04-25 08:53 -33.93851 151.17743 11 ft 13 kts 135°
2026-04-25 08:54 -33.93954 151.17793 13 ft 18 kts 168°
2026-04-25 08:54 -33.94072 151.17827 15 ft 16 kts 168°
2026-04-25 08:54 -33.94185 151.17853 17 ft 15 kts 168°
2026-04-25 08:54 -33.94292 151.17880 22 ft 17 kts 167°
2026-04-25 08:55 -33.94414 151.17911 26 ft 15 kts 175°
2026-04-25 08:55 -33.94512 151.17885 26 ft 13 kts 181°
2026-04-25 08:55 -33.94627 151.17911 27 ft 19 kts 168°
2026-04-25 08:55 -33.94741 151.17941 28 ft 14 kts 168°
2026-04-25 08:56 -33.94859 151.17970 28 ft 19 kts 168°
2026-04-25 08:56 -33.94977 151.18002 26 ft 15 kts 167°
2026-04-25 08:56 -33.95078 151.18028 23 ft 14 kts 168°
2026-04-25 08:56 -33.95172 151.18037 20 ft 12 kts 208°
2026-04-25 08:57 -33.95203 151.17956 20 ft 10 kts 258°
2026-04-25 08:57 -33.95214 151.17897 20 ft 0 kts 258°
2026-04-25 09:00 -33.95222 151.17851 20 ft 10 kts 257°
2026-04-25 09:00 -33.95224 151.17764 20 ft 12 kts 310°
2026-04-25 09:00 -33.95109 151.17722 20 ft 17 kts 347°
2026-04-25 09:00 -33.94743 151.17627 24 ft 98 kts 348°
2026-04-25 09:01 -33.93880 151.17409 165 ft 141 kts 352°
2026-04-25 09:01 -33.92907 151.17215 754 ft 148 kts 349°
2026-04-25 09:01 -33.92062 151.16551 1528 ft 151 kts 315°
2026-04-25 09:01 -33.91637 151.15378 2167 ft 165 kts 281°
2026-04-25 09:02 -33.91837 151.14040 2904 ft 168 kts 246°
2026-04-25 09:02 -33.92381 151.12801 3607 ft 168 kts 244°
2026-04-25 09:02 -33.92926 151.11626 4332 ft 161 kts 241°
2026-04-25 09:02 -33.93460 151.10448 4924 ft 160 kts 243°
2026-04-25 09:03 -33.93955 151.09262 5460 ft 163 kts 244°
2026-04-25 09:03 -33.94457 151.08052 5990 ft 165 kts 243°
2026-04-25 09:03 -33.94962 151.06816 6551 ft 166 kts 244°
2026-04-25 09:03 -33.95470 151.05565 7076 ft 169 kts 243°
2026-04-25 09:04 -33.95958 151.04282 7595 ft 171 kts 249°
2026-04-25 09:04 -33.96536 151.03027 8063 ft 172 kts 220°
2026-04-25 09:04 -33.97499 151.02190 8568 ft 173 kts 212°
2026-04-25 09:04 -33.98488 151.01360 9054 ft 175 kts 213°
2026-04-25 09:05 -33.99481 151.00494 9543 ft 177 kts 214°
2026-04-25 09:05 -34.00474 150.99605 10030 ft 179 kts 214°
2026-04-25 09:05 -34.01463 150.98697 10526 ft 180 kts 216°
2026-04-25 09:05 -34.02455 150.97772 11021 ft 180 kts 216°
2026-04-25 09:06 -34.03437 150.96846 11507 ft 181 kts 217°
2026-04-25 09:06 -34.04431 150.95901 11977 ft 182 kts 216°
2026-04-25 09:06 -34.05432 150.94943 12426 ft 184 kts 217°
2026-04-25 09:06 -34.06445 150.93968 12870 ft 186 kts 217°
2026-04-25 09:07 -34.07450 150.92999 13277 ft 187 kts 217°
2026-04-25 09:07 -34.08468 150.92013 13706 ft 188 kts 217°
2026-04-25 09:07 -34.09486 150.91028 14107 ft 189 kts 217°
2026-04-25 09:07 -34.10516 150.90027 14492 ft 191 kts 217°
2026-04-25 09:08 -34.11549 150.89021 14880 ft 191 kts 217°
2026-04-25 09:08 -34.12587 150.88011 15269 ft 192 kts 217°
2026-04-25 09:08 -34.13637 150.86987 15637 ft 193 kts 217°
2026-04-25 09:08 -34.14686 150.85963 16003 ft 195 kts 217°
2026-04-25 09:09 -34.15772 150.84906 16212 ft 206 kts 217°
2026-04-25 09:09 -34.16941 150.83772 16308 ft 225 kts 217°
2026-04-25 09:09 -34.18222 150.82524 16347 ft 246 kts 218°
2026-04-25 09:09 -34.19604 150.81180 16360 ft 266 kts 218°
2026-04-25 09:10 -34.21114 150.79710 16364 ft 285 kts 217°
2026-04-25 09:10 -34.22707 150.78155 16363 ft 300 kts 218°
2026-04-25 09:10 -34.24368 150.76532 16357 ft 312 kts 218°
2026-04-25 09:10 -34.26092 150.74846 16354 ft 322 kts 218°
2026-04-25 09:11 -34.29659 150.71347 16358 ft 336 kts 218°
2026-04-25 09:11 -34.31486 150.69553 16355 ft 341 kts 218°
2026-04-25 09:11 -34.33318 150.67752 16345 ft 341 kts 218°
2026-04-25 09:12 -34.35175 150.65927 16347 ft 339 kts 218°
2026-04-25 09:12 -34.37009 150.64125 16349 ft 338 kts 218°
2026-04-25 09:12 -34.38834 150.62328 16352 ft 337 kts 218°
2026-04-25 09:12 -34.40642 150.60547 16348 ft 336 kts 218°
2026-04-25 09:13 -34.42465 150.58751 16348 ft 335 kts 218°
2026-04-25 09:13 -34.44263 150.56978 16350 ft 335 kts 218°
2026-04-25 09:13 -34.46099 150.55165 16353 ft 334 kts 218°
2026-04-25 09:13 -34.47894 150.53392 16351 ft 334 kts 218°
2026-04-25 09:14 -34.49688 150.51619 16349 ft 334 kts 218°
2026-04-25 09:14 -34.51495 150.49834 16349 ft 334 kts 218°
2026-04-25 09:14 -34.53330 150.48016 16354 ft 339 kts 218°
2026-04-25 09:14 -34.55153 150.46208 16352 ft 343 kts 218°
2026-04-25 09:15 -34.57019 150.44359 16350 ft 346 kts 218°
2026-04-25 09:15 -34.58895 150.42499 16348 ft 348 kts 218°
2026-04-25 09:15 -34.60774 150.40633 16349 ft 350 kts 218°
2026-04-25 09:15 -34.62687 150.38734 16351 ft 351 kts 218°
2026-04-25 09:16 -34.64580 150.36855 16348 ft 352 kts 219°
2026-04-25 09:16 -34.66485 150.34961 16342 ft 353 kts 219°
2026-04-25 09:16 -34.68401 150.33055 16343 ft 354 kts 219°
2026-04-25 09:16 -34.70301 150.31163 16341 ft 354 kts 219°
2026-04-25 09:17 -34.74143 150.27338 16339 ft 355 kts 219°
2026-04-25 09:17 -34.76049 150.25438 16338 ft 355 kts 219°
2026-04-25 09:17 -34.77946 150.23546 16337 ft 355 kts 219°
2026-04-25 09:18 -34.79853 150.21642 16337 ft 355 kts 219°
2026-04-25 09:18 -34.81789 150.19708 16339 ft 355 kts 219°
2026-04-25 09:18 -34.83687 150.17812 16337 ft 354 kts 219°
2026-04-25 09:18 -34.85612 150.15887 16336 ft 354 kts 219°
2026-04-25 09:19 -34.87508 150.13991 16339 ft 354 kts 219°
2026-04-25 09:19 -34.89423 150.12073 16343 ft 354 kts 219°
2026-04-25 09:19 -34.91330 150.10162 16344 ft 354 kts 219°
2026-04-25 09:19 -34.93214 150.08273 16338 ft 353 kts 220°
2026-04-25 09:20 -34.95134 150.06346 16339 ft 353 kts 219°
2026-04-25 09:20 -34.97031 150.04443 16344 ft 354 kts 219°
2026-04-25 09:20 -34.98928 150.02539 16350 ft 354 kts 219°
2026-04-25 09:20 -35.00820 150.00638 16350 ft 353 kts 219°
2026-04-25 09:21 -35.02726 149.98721 16348 ft 354 kts 219°
2026-04-25 09:21 -35.04625 149.96809 16346 ft 354 kts 219°
2026-04-25 09:21 -35.06445 149.94759 16348 ft 354 kts 226°
2026-04-25 09:21 -35.08145 149.92548 16352 ft 353 kts 227°
2026-04-25 09:22 -35.09835 149.90373 16351 ft 353 kts 227°
2026-04-25 09:22 -35.11518 149.88185 16352 ft 353 kts 227°
2026-04-25 09:22 -35.13203 149.86003 16355 ft 353 kts 227°
2026-04-25 09:22 -35.14895 149.83810 16358 ft 353 kts 227°
2026-04-25 09:23 -35.16597 149.81606 16326 ft 354 kts 227°
2026-04-25 09:23 -35.18294 149.79407 16035 ft 358 kts 227°
2026-04-25 09:23 -35.20026 149.77161 15669 ft 357 kts 227°
2026-04-25 09:23 -35.21715 149.74974 15293 ft 353 kts 227°
2026-04-25 09:24 -35.23399 149.72795 14927 ft 350 kts 227°
2026-04-25 09:24 -35.25065 149.70639 14564 ft 345 kts 227°
2026-04-25 09:24 -35.26696 149.68526 14211 ft 342 kts 227°
2026-04-25 09:24 -35.28326 149.66412 13853 ft 338 kts 227°
2026-04-25 09:25 -35.29925 149.64334 13504 ft 335 kts 227°
2026-04-25 09:25 -35.31518 149.62264 13155 ft 331 kts 227°
2026-04-25 09:25 -35.33095 149.60214 12812 ft 328 kts 227°
2026-04-25 09:25 -35.34651 149.58189 12472 ft 326 kts 227°
2026-04-25 09:26 -35.36199 149.56174 12133 ft 324 kts 227°
2026-04-25 09:26 -35.37725 149.54163 11794 ft 322 kts 227°
2026-04-25 09:26 -35.39265 149.52144 11459 ft 322 kts 227°
2026-04-25 09:26 -35.40799 149.50153 11124 ft 323 kts 227°
2026-04-25 09:27 -35.42325 149.48146 10791 ft 324 kts 227°
2026-04-25 09:27 -35.43851 149.46133 10451 ft 324 kts 227°
2026-04-25 09:27 -35.45403 149.44092 9888 ft 326 kts 227°
2026-04-25 09:27 -35.46923 149.42104 9435 ft 310 kts 227°
2026-04-25 09:28 -35.48348 149.40243 9083 ft 294 kts 227°
2026-04-25 09:28 -35.49720 149.38461 8765 ft 278 kts 227°
2026-04-25 09:28 -35.51030 149.36765 8473 ft 264 kts 227°
2026-04-25 09:28 -35.52252 149.35185 8204 ft 252 kts 227°
2026-04-25 09:29 -35.53441 149.33652 7944 ft 239 kts 228°
2026-04-25 09:29 -35.54545 149.32222 7695 ft 227 kts 229°
2026-04-25 09:29 -35.55299 149.30629 7471 ft 206 kts 259°
2026-04-25 09:29 -35.55510 149.28911 7274 ft 204 kts 264°
2026-04-25 09:30 -35.55718 149.27193 7057 ft 205 kts 264°
2026-04-25 09:30 -35.55907 149.25470 6835 ft 201 kts 265°
2026-04-25 09:30 -35.56099 149.23789 6620 ft 195 kts 263°
2026-04-25 09:30 -35.56206 149.22171 6332 ft 189 kts 282°
2026-04-25 09:31 -35.55505 149.20946 6156 ft 178 kts 332°
2026-04-25 09:31 -35.54365 149.20291 5993 ft 183 kts 337°
2026-04-25 09:31 -35.53265 149.19444 5850 ft 189 kts 320°
2026-04-25 09:31 -35.52243 149.18486 5665 ft 186 kts 344°
2026-04-25 09:32 -35.51009 149.18700 5519 ft 182 kts 26°
2026-04-25 09:32 -35.49861 149.19231 5392 ft 173 kts
2026-04-25 09:32 -35.48658 149.19278 5183 ft 170 kts
2026-04-25 09:32 -35.47537 149.19368 4963 ft 155 kts
2026-04-25 09:33 -35.46492 149.19412 4691 ft 144 kts
2026-04-25 09:33 -35.45505 149.19429 4495 ft 140 kts
2026-04-25 09:33 -35.44542 149.19443 4328 ft 137 kts
2026-04-25 09:33 -35.43593 149.19447 4156 ft 132 kts 359°
2026-04-25 09:34 -35.42700 149.19446 4024 ft 125 kts 360°
2026-04-25 09:34 -35.41835 149.19452 3861 ft 125 kts
2026-04-25 09:34 -35.40968 149.19466 3718 ft 124 kts 359°
2026-04-25 09:34 -35.40100 149.19459 3563 ft 124 kts 359°
2026-04-25 09:35 -35.39240 149.19458 3395 ft 124 kts 359°
2026-04-25 09:35 -35.38368 149.19459 3232 ft 124 kts 359°
2026-04-25 09:35 -35.37499 149.19458 3070 ft 124 kts 359°
2026-04-25 09:35 -35.36644 149.19458 2909 ft 124 kts
2026-04-25 09:36 -35.35778 149.19459 2748 ft 124 kts 360°
2026-04-25 09:36 -35.34915 149.19453 2581 ft 124 kts 359°
2026-04-25 09:36 -35.34053 149.19441 2418 ft 123 kts 360°
2026-04-25 09:36 -35.33192 149.19440 2250 ft 123 kts
2026-04-25 09:37 -35.32330 149.19440 2075 ft 124 kts
2026-04-25 09:37 -35.31466 149.19446 1917 ft 123 kts
2026-04-25 09:37 -35.30685 149.19444 1882 ft 98 kts
2026-04-25 09:37 -35.30203 149.19443 1883 ft 38 kts 359°
2026-04-25 09:38 -35.29879 149.19447 1880 ft 56 kts 359°
2026-04-25 09:38 -35.29608 149.19429 1881 ft 23 kts 320°
2026-04-25 09:38 -35.29581 149.19308 1878 ft 0 kts 269°
2026-04-25 09:38 -35.29581 149.19307 1878 ft 0 kts 268°
2026-04-25 09:39 -35.29582 149.19296 1877 ft 5 kts 262°
2026-04-25 09:40 -35.29759 149.19246 1875 ft 18 kts 179°
2026-04-25 09:40 -35.29883 149.19244 1875 ft 18 kts 179°
2026-04-25 09:40 -35.30005 149.19246 1876 ft 19 kts 180°
2026-04-25 09:40 -35.30151 149.19241 1876 ft 15 kts 185°
2026-04-25 09:41 -35.30246 149.19238 1877 ft 15 kts 177°
2026-04-25 09:41 -35.30363 149.19240 1877 ft 17 kts 182°
2026-04-25 09:41 -35.30506 149.19238 1877 ft 22 kts 180°
2026-04-25 09:41 -35.30640 149.19238 1877 ft 15 kts 180°
2026-04-25 09:42 -35.30657 149.19189 1876 ft 10 kts 310°
2026-04-25 09:42 -35.30602 149.19112 1875 ft 8 kts 310°
2026-04-25 09:42 -35.30556 149.19043 1873 ft 14 kts 310°
2026-04-25 09:42 -35.30483 149.18938 1870 ft 14 kts 310°
2026-04-25 09:43 -35.30455 149.18858 1867 ft 7 kts 201°
2026-04-25 09:43 -35.30496 149.18864 1867 ft 5 kts 208°
2026-04-25 09:43 -35.30508 149.18854 1867 ft 0 kts 218°
2026-04-25 09:43 -35.30508 149.18855 1867 ft 0 kts 218°